Year,Month,Day,Hour,Minute,Value (Times are PST for temperature in C)
2020,08,03,00,00,16.10
2020,08,03,00,01,16.10
2020,08,03,00,02,16.10
2020,08,03,00,03,16.10
2020,08,03,00,04,16.10
2020,08,03,00,05,16.10
2020,08,03,00,06,16.10
2020,08,03,00,07,16.10
2020,08,03,00,08,16.00
2020,08,03,00,09,16.00
2020,08,03,00,10,16.00
2020,08,03,00,11,16.00
2020,08,03,00,12,15.90
2020,08,03,00,13,15.90
2020,08,03,00,14,15.90
2020,08,03,00,15,15.90
2020,08,03,00,16,15.90
2020,08,03,00,17,15.90
2020,08,03,00,18,15.90
2020,08,03,00,19,15.80
2020,08,03,00,20,15.80
2020,08,03,00,21,15.80
2020,08,03,00,22,15.80
2020,08,03,00,23,15.80
2020,08,03,00,24,15.80
2020,08,03,00,25,15.80
2020,08,03,00,26,15.80
2020,08,03,00,27,15.70
2020,08,03,00,28,15.70
2020,08,03,00,29,15.70
2020,08,03,00,30,15.70
2020,08,03,00,31,15.70
2020,08,03,00,32,15.70
2020,08,03,00,33,15.70
2020,08,03,00,34,15.70
2020,08,03,00,35,15.60
2020,08,03,00,36,15.60
2020,08,03,00,37,15.60
2020,08,03,00,38,15.60
2020,08,03,00,39,15.60
2020,08,03,00,40,15.60
2020,08,03,00,41,15.60
2020,08,03,00,42,15.60
2020,08,03,00,43,15.60
2020,08,03,00,44,15.50
2020,08,03,00,45,15.50
2020,08,03,00,46,15.50
2020,08,03,00,47,15.50
2020,08,03,00,48,15.50
2020,08,03,00,49,15.40
2020,08,03,00,50,15.40
2020,08,03,00,51,15.40
2020,08,03,00,52,15.40
2020,08,03,00,53,15.40
2020,08,03,00,54,15.40
2020,08,03,00,55,15.40
2020,08,03,00,56,15.30
2020,08,03,00,57,15.30
2020,08,03,00,58,15.30
2020,08,03,00,59,15.30
2020,08,03,01,00,15.30
2020,08,03,01,01,15.30
2020,08,03,01,02,15.30
2020,08,03,01,03,15.30
2020,08,03,01,04,15.20
2020,08,03,01,05,15.20
2020,08,03,01,06,15.20
2020,08,03,01,07,15.20
2020,08,03,01,08,15.20
2020,08,03,01,09,15.10
2020,08,03,01,10,15.10
2020,08,03,01,11,15.10
2020,08,03,01,12,15.10
2020,08,03,01,13,15.10
2020,08,03,01,14,15.10
2020,08,03,01,15,15.10
2020,08,03,01,16,15.10
2020,08,03,01,17,15.10
2020,08,03,01,18,15.10
2020,08,03,01,19,15.10
2020,08,03,01,20,15.00
2020,08,03,01,21,15.00
2020,08,03,01,22,15.00
2020,08,03,01,23,15.00
2020,08,03,01,24,15.00
2020,08,03,01,25,15.00
2020,08,03,01,26,15.00
2020,08,03,01,27,15.00
2020,08,03,01,28,15.00
2020,08,03,01,29,14.90
2020,08,03,01,30,14.90
2020,08,03,01,31,14.90
2020,08,03,01,32,14.90
2020,08,03,01,33,14.90
2020,08,03,01,34,14.90
2020,08,03,01,35,14.90
2020,08,03,01,36,14.90
2020,08,03,01,37,14.90
2020,08,03,01,38,14.90
2020,08,03,01,39,14.80
2020,08,03,01,40,14.80
2020,08,03,01,41,14.80
2020,08,03,01,42,14.80
2020,08,03,01,43,14.80
2020,08,03,01,44,14.80
2020,08,03,01,45,14.70
2020,08,03,01,46,14.70
2020,08,03,01,47,14.70
2020,08,03,01,48,14.70
2020,08,03,01,49,14.70
2020,08,03,01,50,14.70
2020,08,03,01,51,14.60
2020,08,03,01,52,14.60
2020,08,03,01,53,14.60
2020,08,03,01,54,14.60
2020,08,03,01,55,14.60
2020,08,03,01,56,14.60
2020,08,03,01,57,14.60
2020,08,03,01,58,14.60
2020,08,03,01,59,14.60
2020,08,03,02,00,14.50
2020,08,03,02,01,14.50
2020,08,03,02,02,14.50
2020,08,03,02,03,14.50
2020,08,03,02,04,14.40
2020,08,03,02,05,14.40
2020,08,03,02,06,14.40
2020,08,03,02,07,14.40
2020,08,03,02,08,14.40
2020,08,03,02,09,14.40
2020,08,03,02,10,14.40
2020,08,03,02,11,14.30
2020,08,03,02,12,14.30
2020,08,03,02,13,14.30
2020,08,03,02,14,14.30
2020,08,03,02,15,14.30
2020,08,03,02,16,14.30
2020,08,03,02,17,14.30
2020,08,03,02,18,14.30
2020,08,03,02,19,14.20
2020,08,03,02,20,14.20
2020,08,03,02,21,14.20
2020,08,03,02,22,14.20
2020,08,03,02,23,14.20
2020,08,03,02,24,14.20
2020,08,03,02,25,14.10
2020,08,03,02,26,14.10
2020,08,03,02,27,14.10
2020,08,03,02,28,14.10
2020,08,03,02,29,14.10
2020,08,03,02,30,14.00
2020,08,03,02,31,14.00
2020,08,03,02,32,14.00
2020,08,03,02,33,14.00
2020,08,03,02,34,13.90
2020,08,03,02,35,13.90
2020,08,03,02,36,13.90
2020,08,03,02,37,13.90
2020,08,03,02,38,13.90
2020,08,03,02,39,13.90
2020,08,03,02,40,13.90
2020,08,03,02,41,13.80
2020,08,03,02,42,13.80
2020,08,03,02,43,13.80
2020,08,03,02,44,13.80
2020,08,03,02,45,13.80
2020,08,03,02,46,13.80
2020,08,03,02,47,13.70
2020,08,03,02,48,13.70
2020,08,03,02,49,13.70
2020,08,03,02,50,13.70
2020,08,03,02,51,13.70
2020,08,03,02,52,13.70
2020,08,03,02,53,13.60
2020,08,03,02,54,13.60
2020,08,03,02,55,13.60
2020,08,03,02,56,13.60
2020,08,03,02,57,13.60
2020,08,03,02,58,13.60
2020,08,03,02,59,13.60
2020,08,03,03,00,13.60
2020,08,03,03,01,13.60
2020,08,03,03,02,13.60
2020,08,03,03,03,13.60
2020,08,03,03,04,13.60
2020,08,03,03,05,13.60
2020,08,03,03,06,13.60
2020,08,03,03,07,13.60
2020,08,03,03,08,13.60
2020,08,03,03,09,13.60
2020,08,03,03,10,13.60
2020,08,03,03,11,13.60
2020,08,03,03,12,13.60
2020,08,03,03,13,13.60
2020,08,03,03,14,13.70
2020,08,03,03,15,13.70
2020,08,03,03,16,13.70
2020,08,03,03,17,13.70
2020,08,03,03,18,13.70
2020,08,03,03,19,13.70
2020,08,03,03,20,13.70
2020,08,03,03,21,13.70
2020,08,03,03,22,13.80
2020,08,03,03,23,13.80
2020,08,03,03,24,13.80
2020,08,03,03,25,13.80
2020,08,03,03,26,13.80
2020,08,03,03,27,13.80
2020,08,03,03,28,13.80
2020,08,03,03,29,13.80
2020,08,03,03,30,13.90
2020,08,03,03,31,13.90
2020,08,03,03,32,13.90
2020,08,03,03,33,13.90
2020,08,03,03,34,13.90
2020,08,03,03,35,13.90
2020,08,03,03,36,14.00
2020,08,03,03,37,14.00
2020,08,03,03,38,14.00
2020,08,03,03,39,14.00
2020,08,03,03,40,14.10
2020,08,03,03,41,14.10
2020,08,03,03,42,14.10
2020,08,03,03,43,14.10
2020,08,03,03,44,14.20
2020,08,03,03,45,14.20
2020,08,03,03,46,14.20
2020,08,03,03,47,14.20
2020,08,03,03,48,14.20
2020,08,03,03,49,14.20
2020,08,03,03,50,14.20
2020,08,03,03,51,14.20
2020,08,03,03,52,14.20
2020,08,03,03,53,14.30
2020,08,03,03,54,14.30
2020,08,03,03,55,14.30
2020,08,03,03,56,14.30
2020,08,03,03,57,14.30
2020,08,03,03,58,14.30
2020,08,03,03,59,14.30
2020,08,03,04,00,14.30
2020,08,03,04,01,14.30
2020,08,03,04,02,14.30
2020,08,03,04,03,14.30
2020,08,03,04,04,14.30
2020,08,03,04,05,14.20
2020,08,03,04,06,14.20
2020,08,03,04,07,14.20
2020,08,03,04,08,14.20
2020,08,03,04,09,14.20
2020,08,03,04,10,14.20
2020,08,03,04,11,14.20
2020,08,03,04,12,14.20
2020,08,03,04,13,14.20
2020,08,03,04,14,14.20
2020,08,03,04,15,14.20
2020,08,03,04,16,14.20
2020,08,03,04,17,14.20
2020,08,03,04,18,14.20
2020,08,03,04,19,14.20
2020,08,03,04,20,14.20
2020,08,03,04,21,14.20
2020,08,03,04,22,14.20
2020,08,03,04,23,14.20
2020,08,03,04,24,14.20
2020,08,03,04,25,14.20
2020,08,03,04,26,14.10
2020,08,03,04,27,14.10
2020,08,03,04,28,14.10
2020,08,03,04,29,14.10
2020,08,03,04,30,14.10
2020,08,03,04,31,14.10
2020,08,03,04,32,14.10
2020,08,03,04,33,14.10
2020,08,03,04,34,14.00
2020,08,03,04,35,14.00
2020,08,03,04,36,14.00
2020,08,03,04,37,14.00
2020,08,03,04,38,13.90
2020,08,03,04,39,13.90
2020,08,03,04,40,13.90
2020,08,03,04,41,13.90
2020,08,03,04,42,13.90
2020,08,03,04,43,13.90
2020,08,03,04,44,13.90
2020,08,03,04,45,13.80
2020,08,03,04,46,13.80
2020,08,03,04,47,13.80
2020,08,03,04,48,13.80
2020,08,03,04,49,13.80
2020,08,03,04,50,13.80
2020,08,03,04,51,13.80
2020,08,03,04,52,13.80
2020,08,03,04,53,13.80
2020,08,03,04,54,13.70
2020,08,03,04,55,13.70
2020,08,03,04,56,13.70
2020,08,03,04,57,13.70
2020,08,03,04,58,13.70
2020,08,03,04,59,13.70
2020,08,03,05,00,13.70
2020,08,03,05,01,13.70
2020,08,03,05,02,13.70
2020,08,03,05,03,13.70
2020,08,03,05,04,13.70
2020,08,03,05,05,13.70
2020,08,03,05,06,13.70
2020,08,03,05,07,13.70
2020,08,03,05,08,13.70
2020,08,03,05,09,13.70
2020,08,03,05,10,13.70
2020,08,03,05,11,13.70
2020,08,03,05,12,13.70
2020,08,03,05,13,13.70
2020,08,03,05,14,13.70
2020,08,03,05,15,13.70
2020,08,03,05,16,13.70
2020,08,03,05,17,13.70
2020,08,03,05,18,13.70
2020,08,03,05,19,13.70
2020,08,03,05,20,13.70
2020,08,03,05,21,13.70
2020,08,03,05,22,13.80
2020,08,03,05,23,13.80
2020,08,03,05,24,13.80
2020,08,03,05,25,13.80
2020,08,03,05,26,13.80
2020,08,03,05,27,13.80
2020,08,03,05,28,13.80
2020,08,03,05,29,13.90
2020,08,03,05,30,13.90
2020,08,03,05,31,13.90
2020,08,03,05,32,13.90
2020,08,03,05,33,13.90
2020,08,03,05,34,13.90
2020,08,03,05,35,14.00
2020,08,03,05,36,14.00
2020,08,03,05,37,14.00
2020,08,03,05,38,14.00
2020,08,03,05,39,14.10
2020,08,03,05,40,14.10
2020,08,03,05,41,14.10
2020,08,03,05,42,14.10
2020,08,03,05,43,14.10
2020,08,03,05,44,14.10
2020,08,03,05,45,14.10
2020,08,03,05,46,14.20
2020,08,03,05,47,14.20
2020,08,03,05,48,14.20
2020,08,03,05,49,14.20
2020,08,03,05,50,14.20
2020,08,03,05,51,14.20
2020,08,03,05,52,14.20
2020,08,03,05,53,14.20
2020,08,03,05,54,14.20
2020,08,03,05,55,14.20
2020,08,03,05,56,14.20
2020,08,03,05,57,14.20
2020,08,03,05,58,14.20
2020,08,03,05,59,14.30
2020,08,03,06,00,14.30
2020,08,03,06,01,14.30
2020,08,03,06,02,14.30
2020,08,03,06,03,14.30
2020,08,03,06,04,14.30
2020,08,03,06,05,14.30
2020,08,03,06,06,14.30
2020,08,03,06,07,14.30
2020,08,03,06,08,14.30
2020,08,03,06,09,14.30
2020,08,03,06,10,14.30
2020,08,03,06,11,14.30
2020,08,03,06,12,14.40
2020,08,03,06,13,14.40
2020,08,03,06,14,14.40
2020,08,03,06,15,14.40
2020,08,03,06,16,14.40
2020,08,03,06,17,14.40
2020,08,03,06,18,14.40
2020,08,03,06,19,14.40
2020,08,03,06,20,14.40
2020,08,03,06,21,14.40
2020,08,03,06,22,14.40
2020,08,03,06,23,14.40
2020,08,03,06,24,14.50
2020,08,03,06,25,14.50
2020,08,03,06,26,14.50
2020,08,03,06,27,14.50
2020,08,03,06,28,14.50
2020,08,03,06,29,14.60
2020,08,03,06,30,14.60
2020,08,03,06,31,14.60
2020,08,03,06,32,14.60
2020,08,03,06,33,14.60
2020,08,03,06,34,14.60
2020,08,03,06,35,14.60
2020,08,03,06,36,14.70
2020,08,03,06,37,14.70
2020,08,03,06,38,14.70
2020,08,03,06,39,14.70
2020,08,03,06,40,14.70
2020,08,03,06,41,14.70
2020,08,03,06,42,14.80
2020,08,03,06,43,14.80
2020,08,03,06,44,14.80
2020,08,03,06,45,14.80
2020,08,03,06,46,14.80
2020,08,03,06,47,14.80
2020,08,03,06,48,14.80
2020,08,03,06,49,14.90
2020,08,03,06,50,14.90
2020,08,03,06,51,14.90
2020,08,03,06,52,14.90
2020,08,03,06,53,14.90
2020,08,03,06,54,14.90
2020,08,03,06,55,14.90
2020,08,03,06,56,14.90
2020,08,03,06,57,15.00
2020,08,03,06,58,15.00
2020,08,03,06,59,15.00
2020,08,03,07,00,15.00
2020,08,03,07,01,15.00
2020,08,03,07,02,15.00
2020,08,03,07,03,15.10
2020,08,03,07,04,15.10
2020,08,03,07,05,15.10
2020,08,03,07,06,15.10
2020,08,03,07,07,15.10
2020,08,03,07,08,15.10
2020,08,03,07,09,15.10
2020,08,03,07,10,15.10
2020,08,03,07,11,15.10
2020,08,03,07,12,15.20
2020,08,03,07,13,15.20
2020,08,03,07,14,15.20
2020,08,03,07,15,15.20
2020,08,03,07,16,15.20
2020,08,03,07,17,15.30
2020,08,03,07,18,15.30
2020,08,03,07,19,15.40
2020,08,03,07,20,15.50
2020,08,03,07,21,15.60
2020,08,03,07,22,15.70
2020,08,03,07,23,15.80
2020,08,03,07,24,15.90
2020,08,03,07,25,16.00
2020,08,03,07,26,16.10
2020,08,03,07,27,16.20
2020,08,03,07,28,16.40
2020,08,03,07,29,16.50
2020,08,03,07,30,16.60
2020,08,03,07,31,16.70
2020,08,03,07,32,16.80
2020,08,03,07,33,17.00
2020,08,03,07,34,17.10
2020,08,03,07,35,17.20
2020,08,03,07,36,17.30
2020,08,03,07,37,17.50
2020,08,03,07,38,17.60
2020,08,03,07,39,17.70
2020,08,03,07,40,17.90
2020,08,03,07,41,18.00
2020,08,03,07,42,18.10
2020,08,03,07,43,18.20
2020,08,03,07,44,18.20
2020,08,03,07,45,18.30
2020,08,03,07,46,18.30
2020,08,03,07,47,18.40
2020,08,03,07,48,18.40
2020,08,03,07,49,18.40
2020,08,03,07,50,18.40
2020,08,03,07,51,18.40
2020,08,03,07,52,18.40
2020,08,03,07,53,18.40
2020,08,03,07,54,18.40
2020,08,03,07,55,18.40
2020,08,03,07,56,18.40
2020,08,03,07,57,18.40
2020,08,03,07,58,18.40
2020,08,03,07,59,18.40
2020,08,03,08,00,18.40
2020,08,03,08,01,18.40
2020,08,03,08,02,18.50
2020,08,03,08,03,18.50
2020,08,03,08,04,18.60
2020,08,03,08,05,18.60
2020,08,03,08,06,18.60
2020,08,03,08,07,18.70
2020,08,03,08,08,18.70
2020,08,03,08,09,18.70
2020,08,03,08,10,18.70
2020,08,03,08,11,18.70
2020,08,03,08,12,18.70
2020,08,03,08,13,18.80
2020,08,03,08,14,18.80
2020,08,03,08,15,18.90
2020,08,03,08,16,19.00
2020,08,03,08,17,19.10
2020,08,03,08,18,19.10
2020,08,03,08,19,19.20
2020,08,03,08,20,19.30
2020,08,03,08,21,19.40
2020,08,03,08,22,19.50
2020,08,03,08,23,19.60
2020,08,03,08,24,19.70
2020,08,03,08,25,19.80
2020,08,03,08,26,19.90
2020,08,03,08,27,20.00
2020,08,03,08,28,20.10
2020,08,03,08,29,20.10
2020,08,03,08,30,20.20
2020,08,03,08,31,20.20
2020,08,03,08,32,20.20
2020,08,03,08,33,20.20
2020,08,03,08,34,20.20
2020,08,03,08,35,20.20
2020,08,03,08,36,20.30
2020,08,03,08,37,20.30
2020,08,03,08,38,20.30
2020,08,03,08,39,20.30
2020,08,03,08,40,20.40
2020,08,03,08,41,20.40
2020,08,03,08,42,20.40
2020,08,03,08,43,20.40
2020,08,03,08,44,20.40
2020,08,03,08,45,20.30
2020,08,03,08,46,20.30
2020,08,03,08,47,20.20
2020,08,03,08,48,20.20
2020,08,03,08,49,20.10
2020,08,03,08,50,20.00
2020,08,03,08,51,19.90
2020,08,03,08,52,19.80
2020,08,03,08,53,19.70
2020,08,03,08,54,19.70
2020,08,03,08,55,19.80
2020,08,03,08,56,19.80
2020,08,03,08,57,19.90
2020,08,03,08,58,19.90
2020,08,03,08,59,20.00
2020,08,03,09,00,20.00
2020,08,03,09,01,20.10
2020,08,03,09,02,20.20
2020,08,03,09,03,20.20
2020,08,03,09,04,20.30
2020,08,03,09,05,20.40
2020,08,03,09,06,20.40
2020,08,03,09,07,20.50
2020,08,03,09,08,20.60
2020,08,03,09,09,20.70
2020,08,03,09,10,20.80
2020,08,03,09,11,20.90
2020,08,03,09,12,21.00
2020,08,03,09,13,21.10
2020,08,03,09,14,21.20
2020,08,03,09,15,21.20
2020,08,03,09,16,21.20
2020,08,03,09,17,21.30
2020,08,03,09,18,21.30
2020,08,03,09,19,21.30
2020,08,03,09,20,21.30
2020,08,03,09,21,21.30
2020,08,03,09,22,21.30
2020,08,03,09,23,21.30
2020,08,03,09,24,21.20
2020,08,03,09,25,21.20
2020,08,03,09,26,21.20
2020,08,03,09,27,21.20
2020,08,03,09,28,21.30
2020,08,03,09,29,21.30
2020,08,03,09,30,21.30
2020,08,03,09,31,21.30
2020,08,03,09,32,21.30
2020,08,03,09,33,21.30
2020,08,03,09,34,21.40
2020,08,03,09,35,21.40
2020,08,03,09,36,21.40
2020,08,03,09,37,21.40
2020,08,03,09,38,21.40
2020,08,03,09,39,21.40
2020,08,03,09,40,21.50
2020,08,03,09,41,21.50
2020,08,03,09,42,21.50
2020,08,03,09,43,21.50
2020,08,03,09,44,21.60
2020,08,03,09,45,21.50
2020,08,03,09,46,21.50
2020,08,03,09,47,21.50
2020,08,03,09,48,21.50
2020,08,03,09,49,21.40
2020,08,03,09,50,21.30
2020,08,03,09,51,21.20
2020,08,03,09,52,21.20
2020,08,03,09,53,21.20
2020,08,03,09,54,21.20
2020,08,03,09,55,21.20
2020,08,03,09,56,21.20
2020,08,03,09,57,21.20
2020,08,03,09,58,21.20
2020,08,03,09,59,21.10
2020,08,03,10,00,21.10
2020,08,03,10,01,21.10
2020,08,03,10,02,21.20
2020,08,03,10,03,21.20
2020,08,03,10,04,21.20
2020,08,03,10,05,21.20
2020,08,03,10,06,21.20
2020,08,03,10,07,21.20
2020,08,03,10,08,21.20
2020,08,03,10,09,21.20
2020,08,03,10,10,21.20
2020,08,03,10,11,21.30
2020,08,03,10,12,21.30
2020,08,03,10,13,21.30
2020,08,03,10,14,21.30
2020,08,03,10,15,21.30
2020,08,03,10,16,21.30
2020,08,03,10,17,21.30
2020,08,03,10,18,21.30
2020,08,03,10,19,21.30
2020,08,03,10,20,21.30
2020,08,03,10,21,21.30
2020,08,03,10,22,21.30
2020,08,03,10,23,21.30
2020,08,03,10,24,21.40
2020,08,03,10,25,21.50
2020,08,03,10,26,21.50
2020,08,03,10,27,21.50
2020,08,03,10,28,21.60
2020,08,03,10,29,21.60
2020,08,03,10,30,21.60
2020,08,03,10,31,21.70
2020,08,03,10,32,21.70
2020,08,03,10,33,21.80
2020,08,03,10,34,21.80
2020,08,03,10,35,21.80
2020,08,03,10,36,21.90
2020,08,03,10,37,22.00
2020,08,03,10,38,22.00
2020,08,03,10,39,22.00
2020,08,03,10,40,22.00
2020,08,03,10,41,22.10
2020,08,03,10,42,22.10
2020,08,03,10,43,22.10
2020,08,03,10,44,22.10
2020,08,03,10,45,22.10
2020,08,03,10,46,22.20
2020,08,03,10,47,22.30
2020,08,03,10,48,22.30
2020,08,03,10,49,22.40
2020,08,03,10,50,22.50
2020,08,03,10,51,22.60
2020,08,03,10,52,22.60
2020,08,03,10,53,22.60
2020,08,03,10,54,22.60
2020,08,03,10,55,22.50
2020,08,03,10,56,22.40
2020,08,03,10,57,22.30
2020,08,03,10,58,22.30
2020,08,03,10,59,22.30
2020,08,03,11,00,22.30
2020,08,03,11,01,22.40
2020,08,03,11,02,22.40
2020,08,03,11,03,22.40
2020,08,03,11,04,22.40
2020,08,03,11,05,22.50
2020,08,03,11,06,22.40
2020,08,03,11,07,22.40
2020,08,03,11,08,22.40
2020,08,03,11,09,22.40
2020,08,03,11,10,22.40
2020,08,03,11,11,22.40
2020,08,03,11,12,22.30
2020,08,03,11,13,22.30
2020,08,03,11,14,22.30
2020,08,03,11,15,22.30
2020,08,03,11,16,22.30
2020,08,03,11,17,22.30
2020,08,03,11,18,22.30
2020,08,03,11,19,22.40
2020,08,03,11,20,22.40
2020,08,03,11,21,22.40
2020,08,03,11,22,22.40
2020,08,03,11,23,22.40
2020,08,03,11,24,22.40
2020,08,03,11,25,22.50
2020,08,03,11,26,22.50
2020,08,03,11,27,22.50
2020,08,03,11,28,22.60
2020,08,03,11,29,22.60
2020,08,03,11,30,22.60
2020,08,03,11,31,22.60
2020,08,03,11,32,22.70
2020,08,03,11,33,22.70
2020,08,03,11,34,22.70
2020,08,03,11,35,22.60
2020,08,03,11,36,22.60
2020,08,03,11,37,22.50
2020,08,03,11,38,22.50
2020,08,03,11,39,22.50
2020,08,03,11,40,22.50
2020,08,03,11,41,22.60
2020,08,03,11,42,22.60
2020,08,03,11,43,22.70
2020,08,03,11,44,22.70
2020,08,03,11,45,22.70
2020,08,03,11,46,22.80
2020,08,03,11,47,22.80
2020,08,03,11,48,22.80
2020,08,03,11,49,22.80
2020,08,03,11,50,22.80
2020,08,03,11,51,22.90
2020,08,03,11,52,22.90
2020,08,03,11,53,22.90
2020,08,03,11,54,22.90
2020,08,03,11,55,23.00
2020,08,03,11,56,23.10
2020,08,03,11,57,23.10
2020,08,03,11,58,23.10
2020,08,03,11,59,23.00
2020,08,03,12,00,23.00
2020,08,03,12,01,23.00
2020,08,03,12,02,23.10
2020,08,03,12,03,23.10
2020,08,03,12,04,23.10
2020,08,03,12,05,23.10
2020,08,03,12,06,23.10
2020,08,03,12,07,23.10
2020,08,03,12,08,23.10
2020,08,03,12,09,23.10
2020,08,03,12,10,23.10
2020,08,03,12,11,23.00
2020,08,03,12,12,23.00
2020,08,03,12,13,23.00
2020,08,03,12,14,22.90
2020,08,03,12,15,22.90
2020,08,03,12,16,23.00
2020,08,03,12,17,23.00
2020,08,03,12,18,23.10
2020,08,03,12,19,23.10
2020,08,03,12,20,23.10
2020,08,03,12,21,23.10
2020,08,03,12,22,23.10
2020,08,03,12,23,23.20
2020,08,03,12,24,23.20
2020,08,03,12,25,23.20
2020,08,03,12,26,23.20
2020,08,03,12,27,23.20
2020,08,03,12,28,23.20
2020,08,03,12,29,23.20
2020,08,03,12,30,23.30
2020,08,03,12,31,23.30
2020,08,03,12,32,23.30
2020,08,03,12,33,23.30
2020,08,03,12,34,23.30
2020,08,03,12,35,23.30
2020,08,03,12,36,23.30
2020,08,03,12,37,23.30
2020,08,03,12,38,23.30
2020,08,03,12,39,23.30
2020,08,03,12,40,23.20
2020,08,03,12,41,23.20
2020,08,03,12,42,23.20
2020,08,03,12,43,23.20
2020,08,03,12,44,23.20
2020,08,03,12,45,23.20
2020,08,03,12,46,23.20
2020,08,03,12,47,23.20
2020,08,03,12,48,23.20
2020,08,03,12,49,23.10
2020,08,03,12,50,23.10
2020,08,03,12,51,23.10
2020,08,03,12,52,23.10
2020,08,03,12,53,23.20
2020,08,03,12,54,23.20
2020,08,03,12,55,23.20
2020,08,03,12,56,23.30
2020,08,03,12,57,23.30
2020,08,03,12,58,23.30
2020,08,03,12,59,23.30
2020,08,03,13,00,23.30
2020,08,03,13,01,23.30
2020,08,03,13,02,23.40
2020,08,03,13,03,23.40
2020,08,03,13,04,23.40
2020,08,03,13,05,23.50
2020,08,03,13,06,23.50
2020,08,03,13,07,23.40
2020,08,03,13,08,23.50
2020,08,03,13,09,23.40
2020,08,03,13,10,23.40
2020,08,03,13,11,23.40
2020,08,03,13,12,23.40
2020,08,03,13,13,23.40
2020,08,03,13,14,23.40
2020,08,03,13,15,23.50
2020,08,03,13,16,23.50
2020,08,03,13,17,23.50
2020,08,03,13,18,23.50
2020,08,03,13,19,23.60
2020,08,03,13,20,23.60
2020,08,03,13,21,23.60
2020,08,03,13,22,23.50
2020,08,03,13,23,23.50
2020,08,03,13,24,23.50
2020,08,03,13,25,23.50
2020,08,03,13,26,23.50
2020,08,03,13,27,23.60
2020,08,03,13,28,23.60
2020,08,03,13,29,23.70
2020,08,03,13,30,23.70
2020,08,03,13,31,23.70
2020,08,03,13,32,23.70
2020,08,03,13,33,23.70
2020,08,03,13,34,23.70
2020,08,03,13,35,23.70
2020,08,03,13,36,23.60
2020,08,03,13,37,23.60
2020,08,03,13,38,23.60
2020,08,03,13,39,23.60
2020,08,03,13,40,23.50
2020,08,03,13,41,23.60
2020,08,03,13,42,23.60
2020,08,03,13,43,23.60
2020,08,03,13,44,23.60
2020,08,03,13,45,23.60
2020,08,03,13,46,23.60
2020,08,03,13,47,23.60
2020,08,03,13,48,23.60
2020,08,03,13,49,23.70
2020,08,03,13,50,23.70
2020,08,03,13,51,23.80
2020,08,03,13,52,23.80
2020,08,03,13,53,23.90
2020,08,03,13,54,23.90
2020,08,03,13,55,24.00
2020,08,03,13,56,24.00
2020,08,03,13,57,24.10
2020,08,03,13,58,24.10
2020,08,03,13,59,24.10
2020,08,03,14,00,24.10
2020,08,03,14,01,24.10
2020,08,03,14,02,24.00
2020,08,03,14,03,24.00
2020,08,03,14,04,24.00
2020,08,03,14,05,24.00
2020,08,03,14,06,24.10
2020,08,03,14,07,24.10
2020,08,03,14,08,24.10
2020,08,03,14,09,24.20
2020,08,03,14,10,24.20
2020,08,03,14,11,24.20
2020,08,03,14,12,24.10
2020,08,03,14,13,24.10
2020,08,03,14,14,24.00
2020,08,03,14,15,23.90
2020,08,03,14,16,23.80
2020,08,03,14,17,23.70
2020,08,03,14,18,23.60
2020,08,03,14,19,23.50
2020,08,03,14,20,23.40
2020,08,03,14,21,23.30
2020,08,03,14,22,23.20
2020,08,03,14,23,23.10
2020,08,03,14,24,23.10
2020,08,03,14,25,23.00
2020,08,03,14,26,22.90
2020,08,03,14,27,22.80
2020,08,03,14,28,22.80
2020,08,03,14,29,22.70
2020,08,03,14,30,22.70
2020,08,03,14,31,22.60
2020,08,03,14,32,22.60
2020,08,03,14,33,22.60
2020,08,03,14,34,22.60
2020,08,03,14,35,22.50
2020,08,03,14,36,22.50
2020,08,03,14,37,22.40
2020,08,03,14,38,22.40
2020,08,03,14,39,22.40
2020,08,03,14,40,22.40
2020,08,03,14,41,22.40
2020,08,03,14,42,22.40
2020,08,03,14,43,22.30
2020,08,03,14,44,22.30
2020,08,03,14,45,22.30
2020,08,03,14,46,22.20
2020,08,03,14,47,22.20
2020,08,03,14,48,22.20
2020,08,03,14,49,22.20
2020,08,03,14,50,22.20
2020,08,03,14,51,22.10
2020,08,03,14,52,22.10
2020,08,03,14,53,22.10
2020,08,03,14,54,22.10
2020,08,03,14,55,22.10
2020,08,03,14,56,22.10
2020,08,03,14,57,22.10
2020,08,03,14,58,22.10
2020,08,03,14,59,22.10
2020,08,03,15,00,22.10
2020,08,03,15,01,22.10
2020,08,03,15,02,22.10
2020,08,03,15,03,22.10
2020,08,03,15,04,22.10
2020,08,03,15,05,22.10
2020,08,03,15,06,22.20
2020,08,03,15,07,22.20
2020,08,03,15,08,22.30
2020,08,03,15,09,22.40
2020,08,03,15,10,22.50
2020,08,03,15,11,22.60
2020,08,03,15,12,22.70
2020,08,03,15,13,22.80
2020,08,03,15,14,22.90
2020,08,03,15,15,22.90
2020,08,03,15,16,23.00
2020,08,03,15,17,23.10
2020,08,03,15,18,23.20
2020,08,03,15,19,23.20
2020,08,03,15,20,23.30
2020,08,03,15,21,23.40
2020,08,03,15,22,23.40
2020,08,03,15,23,23.50
2020,08,03,15,24,23.60
2020,08,03,15,25,23.70
2020,08,03,15,26,23.70
2020,08,03,15,27,23.80
2020,08,03,15,28,23.80
2020,08,03,15,29,23.90
2020,08,03,15,30,24.00
2020,08,03,15,31,24.00
2020,08,03,15,32,24.00
2020,08,03,15,33,24.00
2020,08,03,15,34,24.00
2020,08,03,15,35,24.10
2020,08,03,15,36,24.10
2020,08,03,15,37,24.20
2020,08,03,15,38,24.20
2020,08,03,15,39,24.20
2020,08,03,15,40,24.20
2020,08,03,15,41,24.30
2020,08,03,15,42,24.30
2020,08,03,15,43,24.30
2020,08,03,15,44,24.30
2020,08,03,15,45,24.40
2020,08,03,15,46,24.40
2020,08,03,15,47,24.50
2020,08,03,15,48,24.50
2020,08,03,15,49,24.50
2020,08,03,15,50,24.50
2020,08,03,15,51,24.50
2020,08,03,15,52,24.60
2020,08,03,15,53,24.60
2020,08,03,15,54,24.60
2020,08,03,15,55,24.60
2020,08,03,15,56,24.50
2020,08,03,15,57,24.50
2020,08,03,15,58,24.50
2020,08,03,15,59,24.50
2020,08,03,16,00,24.50
2020,08,03,16,01,24.40
2020,08,03,16,02,24.40
2020,08,03,16,03,24.40
2020,08,03,16,04,24.40
2020,08,03,16,05,24.40
2020,08,03,16,06,24.50
2020,08,03,16,07,24.50
2020,08,03,16,08,24.60
2020,08,03,16,09,24.60
2020,08,03,16,10,24.70
2020,08,03,16,11,24.70
2020,08,03,16,12,24.70
2020,08,03,16,13,24.80
2020,08,03,16,14,24.80
2020,08,03,16,15,24.90
2020,08,03,16,16,24.90
2020,08,03,16,17,25.00
2020,08,03,16,18,25.00
2020,08,03,16,19,25.00
2020,08,03,16,20,25.00
2020,08,03,16,21,25.00
2020,08,03,16,22,25.00
2020,08,03,16,23,24.90
2020,08,03,16,24,24.90
2020,08,03,16,25,24.90
2020,08,03,16,26,24.90
2020,08,03,16,27,24.90
2020,08,03,16,28,24.80
2020,08,03,16,29,24.80
2020,08,03,16,30,24.80
2020,08,03,16,31,24.80
2020,08,03,16,32,24.80
2020,08,03,16,33,24.80
2020,08,03,16,34,24.80
2020,08,03,16,35,24.70
2020,08,03,16,36,24.70
2020,08,03,16,37,24.60
2020,08,03,16,38,24.60
2020,08,03,16,39,24.50
2020,08,03,16,40,24.50
2020,08,03,16,41,24.40
2020,08,03,16,42,24.40
2020,08,03,16,43,24.40
2020,08,03,16,44,24.40
2020,08,03,16,45,24.40
2020,08,03,16,46,24.40
2020,08,03,16,47,24.50
2020,08,03,16,48,24.50
2020,08,03,16,49,24.50
2020,08,03,16,50,24.50
2020,08,03,16,51,24.60
2020,08,03,16,52,24.60
2020,08,03,16,53,24.60
2020,08,03,16,54,24.60
2020,08,03,16,55,24.60
2020,08,03,16,56,24.60
2020,08,03,16,57,24.60
2020,08,03,16,58,24.60
2020,08,03,16,59,24.60
2020,08,03,17,00,24.60
2020,08,03,17,01,24.60
2020,08,03,17,02,24.50
2020,08,03,17,03,24.40
2020,08,03,17,04,24.40
2020,08,03,17,05,24.40
2020,08,03,17,06,24.30
2020,08,03,17,07,24.30
2020,08,03,17,08,24.30
2020,08,03,17,09,24.30
2020,08,03,17,10,24.30
2020,08,03,17,11,24.20
2020,08,03,17,12,24.10
2020,08,03,17,13,24.10
2020,08,03,17,14,24.00
2020,08,03,17,15,23.90
2020,08,03,17,16,23.90
2020,08,03,17,17,23.90
2020,08,03,17,18,23.90
2020,08,03,17,19,23.90